Location: Le Petit-Vavre
(46.5081°N, 1.5239°E)
Time: 14:39:14
(UTC+00:00)

HJ-1C - Pass Details

Date: 03 March 2021
Orbit: 428 x 440 km, 97.1° (Epoch: 15 April)

Event Time Altitude Azimuth Distance (km) Brightness Sun altitude
Rises 18:31:41 0° 157° (SSE) 2,415 6.9 -9.2°
Reaches altitude 10° 18:33:43 10° 152° (SSE) 1,549 5.8 -9.5°
Maximum altitude 18:36:58 55° 74° (ENE) 536 3.4 -10.1°
Drops below altitude 10° 18:40:13 10° 356° (N) 1,556 6.2 -10.7°
Sets 18:42:16 0° 352° (N) 2,428 7.2 -11.0°
